Time,TemperatureF,DewpointF,PressureIn,WindDirection,WindDirectionDegrees,WindSpeedMPH,WindSpeedGustMPH,Humidity,HourlyPrecipIn,Conditions,Clouds,dailyrainin,SoftwareType,DateUTC
2013-04-12 00:03:00,53.0,44.0,29.84,ESE,117,0.0,0.0,71,0.00,,,0.00,,2013-04-12 05:03:00,
2013-04-12 00:12:00,53.0,44.0,29.84,ESE,117,0.0,0.0,71,0.00,,,0.00,,2013-04-12 05:12:00,
2013-04-12 00:22:00,53.0,45.0,29.84,ESE,117,0.0,0.0,73,0.00,,,0.00,,2013-04-12 05:22:00,
2013-04-12 00:32:00,52.0,44.0,29.85,ESE,118,0.0,0.0,75,0.00,,,0.00,,2013-04-12 05:32:00,
2013-04-12 00:42:00,52.0,44.0,29.85,ESE,118,0.0,0.0,75,0.00,,,0.00,,2013-04-12 05:42:00,
2013-04-12 00:52:00,51.0,44.0,29.86,ESE,118,0.0,0.0,77,0.00,,,0.00,,2013-04-12 05:52:00,
2013-04-12 01:02:00,51.0,44.0,29.86,ESE,118,0.0,0.0,77,0.00,,,0.00,,2013-04-12 06:02:00,
2013-04-12 01:12:00,51.0,44.0,29.86,ESE,118,0.0,0.0,77,0.00,,,0.00,,2013-04-12 06:12:00,
2013-04-12 01:22:00,51.0,45.0,29.86,ESE,118,0.0,0.0,79,0.00,,,0.00,,2013-04-12 06:22:00,
2013-04-12 01:32:00,50.0,45.0,29.86,ESE,117,0.0,0.0,82,0.00,,,0.00,,2013-04-12 06:32:00,
2013-04-12 01:42:00,50.0,45.0,29.86,ESE,117,0.0,0.0,82,0.00,,,0.00,,2013-04-12 06:42:00,
2013-04-12 01:52:00,50.0,45.0,29.85,ESE,117,0.0,0.0,83,0.00,,,0.00,,2013-04-12 06:52:00,
2013-04-12 02:01:00,50.0,45.0,29.86,ESE,118,0.0,0.0,84,0.00,,,0.00,,2013-04-12 07:01:00,
2013-04-12 02:11:00,50.0,45.0,29.86,ESE,118,0.0,0.0,84,0.00,,,0.00,,2013-04-12 07:11:00,
2013-04-12 02:22:00,49.0,45.0,29.85,ESE,117,0.0,0.0,85,0.00,,,0.00,,2013-04-12 07:22:00,
2013-04-12 02:32:00,49.0,45.0,29.85,ESE,118,0.0,0.0,85,0.00,,,0.00,,2013-04-12 07:32:00,
2013-04-12 02:42:00,49.0,45.0,29.85,ESE,118,0.0,0.0,85,0.00,,,0.00,,2013-04-12 07:42:00,
2013-04-12 02:52:00,49.0,45.0,29.85,ESE,117,0.0,0.0,86,0.00,,,0.00,,2013-04-12 07:52:00,
2013-04-12 03:03:00,49.0,45.0,29.85,ESE,118,0.0,0.0,86,0.00,,,0.00,,2013-04-12 08:03:00,
2013-04-12 03:12:00,49.0,45.0,29.85,ESE,118,0.0,0.0,86,0.00,,,0.00,,2013-04-12 08:12:00,
2013-04-12 03:22:00,48.0,44.0,29.85,ESE,117,0.0,0.0,87,0.00,,,0.00,,2013-04-12 08:22:00,
2013-04-12 03:32:00,47.0,44.0,29.85,ESE,117,0.0,0.0,88,0.00,,,0.00,,2013-04-12 08:32:00,
2013-04-12 03:42:00,47.0,44.0,29.85,ESE,117,0.0,0.0,88,0.00,,,0.00,,2013-04-12 08:42:00,
2013-04-12 03:52:00,46.0,43.0,29.84,ESE,117,0.0,0.0,88,0.00,,,0.00,,2013-04-12 08:52:00,
2013-04-12 04:02:00,46.0,43.0,29.84,ESE,117,0.0,0.0,88,0.00,,,0.00,,2013-04-12 09:02:00,
2013-04-12 04:12:00,46.0,43.0,29.84,ESE,117,0.0,0.0,88,0.00,,,0.00,,2013-04-12 09:12:00,
2013-04-12 04:22:00,46.0,43.0,29.84,ESE,117,0.0,0.0,89,0.00,,,0.00,,2013-04-12 09:22:00,
2013-04-12 04:32:00,46.0,43.0,29.84,ESE,118,0.0,0.0,89,0.00,,,0.00,,2013-04-12 09:32:00,
2013-04-12 04:43:00,46.0,43.0,29.84,ESE,118,0.0,0.0,89,0.00,,,0.00,,2013-04-12 09:43:00,
2013-04-12 04:53:00,46.0,43.0,29.84,ESE,118,0.0,0.0,89,0.00,,,0.00,,2013-04-12 09:53:00,
2013-04-12 05:02:00,46.0,43.0,29.84,ESE,118,0.0,0.0,89,0.00,,,0.00,,2013-04-12 10:02:00,
2013-04-12 05:12:00,46.0,42.0,29.84,ESE,118,0.0,0.0,87,0.00,,,0.00,,2013-04-12 10:12:00,
2013-04-12 05:23:00,46.0,42.0,29.84,ESE,118,0.0,0.0,87,0.00,,,0.00,,2013-04-12 10:23:00,
2013-04-12 05:33:00,46.0,42.0,29.85,ESE,118,0.0,0.0,87,0.00,,,0.00,,2013-04-12 10:33:00,
2013-04-12 05:42:00,46.0,42.0,29.85,ESE,118,0.0,0.0,87,0.00,,,0.00,,2013-04-12 10:42:00,
2013-04-12 05:53:00,46.0,42.0,29.84,ESE,117,0.0,0.0,87,0.00,,,0.00,,2013-04-12 10:53:00,
2013-04-12 06:02:00,46.0,42.0,29.85,ESE,118,0.0,0.0,87,0.00,,,0.00,,2013-04-12 11:02:00,
2013-04-12 06:12:00,46.0,42.0,29.85,ESE,118,0.0,0.0,87,0.00,,,0.00,,2013-04-12 11:12:00,
2013-04-12 06:22:00,45.0,42.0,29.85,ESE,118,0.0,0.0,88,0.00,,,0.00,,2013-04-12 11:22:00,
2013-04-12 06:32:00,45.0,42.0,29.86,ESE,117,0.0,0.0,88,0.00,,,0.00,,2013-04-12 11:32:00,
2013-04-12 06:42:00,45.0,42.0,29.86,ESE,117,0.0,0.0,88,0.00,,,0.00,,2013-04-12 11:42:00,
2013-04-12 06:52:00,44.0,41.0,29.87,ESE,118,0.0,1.0,89,0.00,,,0.00,,2013-04-12 11:52:00,
2013-04-12 07:02:00,44.0,41.0,29.88,ESE,118,0.0,0.0,89,0.00,,,0.00,,2013-04-12 12:02:00,
2013-04-12 07:13:00,44.0,41.0,29.88,ESE,118,0.0,0.0,89,0.00,,,0.00,,2013-04-12 12:13:00,
2013-04-12 07:22:00,44.0,41.0,29.89,ESE,118,0.0,0.0,89,0.00,,,0.00,,2013-04-12 12:22:00,
2013-04-12 07:32:00,44.0,41.0,29.89,ESE,117,0.0,0.0,90,0.00,,,0.00,,2013-04-12 12:32:00,
2013-04-12 07:42:00,44.0,41.0,29.89,ESE,117,0.0,0.0,90,0.00,,,0.00,,2013-04-12 12:42:00,
2013-04-12 07:53:00,43.0,40.0,29.90,ESE,118,0.0,0.0,90,0.00,,,0.00,,2013-04-12 12:53:00,
2013-04-12 08:03:00,44.0,41.0,29.91,ESE,118,0.0,0.0,90,0.00,,,0.00,,2013-04-12 13:03:00,
2013-04-12 08:12:00,44.0,41.0,29.91,ESE,118,0.0,0.0,90,0.00,,,0.00,,2013-04-12 13:12:00,
2013-04-12 08:22:00,45.0,43.0,29.91,ESE,118,0.0,0.0,91,0.00,,,0.00,,2013-04-12 13:22:00,
2013-04-12 08:32:00,46.0,43.0,29.92,ESE,118,0.0,0.0,90,0.00,,,0.00,,2013-04-12 13:32:00,
2013-04-12 08:42:00,46.0,43.0,29.92,ESE,118,0.0,0.0,90,0.00,,,0.00,,2013-04-12 13:42:00,
2013-04-12 08:53:00,48.0,45.0,29.92,ESE,117,0.0,0.0,89,0.00,,,0.00,,2013-04-12 13:53:00,
2013-04-12 09:03:00,49.0,45.0,29.92,ESE,118,0.0,0.0,87,0.00,,,0.00,,2013-04-12 14:03:00,
2013-04-12 09:12:00,49.0,45.0,29.92,ESE,118,0.0,0.0,87,0.00,,,0.00,,2013-04-12 14:12:00,
2013-04-12 09:22:00,52.0,47.0,29.92,ESE,117,0.0,0.0,82,0.00,,,0.00,,2013-04-12 14:22:00,
2013-04-12 09:32:00,54.0,47.0,29.92,ESE,118,0.0,0.0,76,0.00,,,0.00,,2013-04-12 14:32:00,
2013-04-12 09:42:00,54.0,47.0,29.92,ESE,118,0.0,0.0,76,0.00,,,0.00,,2013-04-12 14:42:00,
2013-04-12 09:53:00,57.0,47.0,29.93,ESE,118,0.0,0.0,70,0.00,,,0.00,,2013-04-12 14:53:00,
2013-04-12 10:02:00,59.0,47.0,29.93,ESE,117,0.0,0.0,65,0.00,,,0.00,,2013-04-12 15:02:00,
2013-04-12 10:12:00,59.0,47.0,29.93,ESE,117,0.0,0.0,65,0.00,,,0.00,,2013-04-12 15:12:00,
2013-04-12 10:22:00,61.0,49.0,29.93,ESE,117,0.0,0.0,64,0.00,,,0.00,,2013-04-12 15:22:00,
2013-04-12 10:33:00,62.0,48.0,29.94,ESE,118,0.0,0.0,61,0.00,,,0.00,,2013-04-12 15:33:00,
2013-04-12 10:43:00,62.0,48.0,29.94,ESE,118,0.0,0.0,61,0.00,,,0.00,,2013-04-12 15:43:00,
2013-04-12 10:53:00,64.0,48.0,29.94,ESE,117,0.0,7.0,57,0.00,,,0.00,,2013-04-12 15:53:00,
2013-04-12 11:03:00,66.0,49.0,29.94,ESE,118,3.0,8.0,54,0.00,,,0.00,,2013-04-12 16:03:00,
2013-04-12 11:13:00,66.0,49.0,29.94,ESE,118,3.0,8.0,54,0.00,,,0.00,,2013-04-12 16:13:00,
2013-04-12 11:23:00,66.0,49.0,29.94,ESE,118,3.0,8.0,54,0.00,,,0.00,,2013-04-12 16:23:00,
2013-04-12 11:33:00,69.0,47.0,29.93,ESE,118,3.0,9.0,45,0.00,,,0.00,,2013-04-12 16:33:00,
2013-04-12 11:42:00,69.0,47.0,29.93,ESE,118,3.0,9.0,45,0.00,,,0.00,,2013-04-12 16:42:00,
2013-04-12 11:53:00,70.0,48.0,29.94,ESE,117,0.0,8.0,45,0.00,,,0.00,,2013-04-12 16:53:00,
2013-04-12 12:03:00,70.0,45.0,29.93,ESE,118,5.0,13.0,41,0.00,,,0.00,,2013-04-12 17:03:00,
2013-04-12 12:12:00,70.0,45.0,29.93,ESE,118,5.0,13.0,41,0.00,,,0.00,,2013-04-12 17:12:00,
2013-04-12 12:23:00,71.0,45.0,29.93,ESE,118,1.0,10.0,40,0.00,,,0.00,,2013-04-12 17:23:00,
2013-04-12 12:33:00,72.0,46.0,29.93,ESE,118,3.0,10.0,39,0.00,,,0.00,,2013-04-12 17:33:00,
2013-04-12 12:44:00,72.0,46.0,29.93,ESE,118,3.0,10.0,39,0.00,,,0.00,,2013-04-12 17:44:00,
2013-04-12 13:09:00,73.0,45.0,29.91,SSE,157,0.0,11.0,37,0.00,,,0.00,,2013-04-12 18:09:00,
2013-04-12 13:15:00,73.0,45.0,29.91,SSE,157,0.0,11.0,37,0.00,,,0.00,,2013-04-12 18:15:00,
2013-04-12 14:26:00,77.0,45.0,29.88,SSE,150,1.0,11.0,32,0.00,,,0.00,,2013-04-12 19:26:00,
2013-04-12 14:27:00,76.0,45.0,29.87,SE,133,4.0,11.0,33,0.00,,,0.00,,2013-04-12 19:27:00,
2013-04-12 14:32:00,76.0,44.0,29.87,SE,145,0.0,10.0,32,0.00,,,0.00,,2013-04-12 19:32:00,
2013-04-12 14:43:00,76.0,44.0,29.87,SE,145,0.0,10.0,32,0.00,,,0.00,,2013-04-12 19:43:00,
2013-04-12 14:53:00,77.0,43.0,29.85,SE,144,6.0,12.0,30,0.00,,,0.00,,2013-04-12 19:53:00,
2013-04-12 15:02:00,78.0,44.0,29.85,SE,143,2.0,9.0,30,0.00,,,0.00,,2013-04-12 20:02:00,
2013-04-12 15:12:00,78.0,44.0,29.85,SE,143,2.0,9.0,30,0.00,,,0.00,,2013-04-12 20:12:00,
2013-04-12 15:22:00,78.0,44.0,29.84,SE,144,3.0,10.0,30,0.00,,,0.00,,2013-04-12 20:22:00,
2013-04-12 15:32:00,79.0,44.0,29.83,SE,145,5.0,11.0,29,0.00,,,0.00,,2013-04-12 20:32:00,
2013-04-12 15:42:00,79.0,44.0,29.83,SE,145,5.0,11.0,29,0.00,,,0.00,,2013-04-12 20:42:00,
2013-04-12 15:52:00,78.0,42.0,29.83,SSE,152,4.0,10.0,28,0.00,,,0.00,,2013-04-12 20:52:00,
2013-04-12 16:02:00,79.0,43.0,29.82,SE,144,1.0,10.0,28,0.00,,,0.00,,2013-04-12 21:02:00,
2013-04-12 16:12:00,79.0,43.0,29.82,SE,144,1.0,10.0,28,0.00,,,0.00,,2013-04-12 21:12:00,
2013-04-12 16:22:00,79.0,42.0,29.80,SE,140,4.0,11.0,27,0.00,,,0.00,,2013-04-12 21:22:00,
2013-04-12 16:32:00,79.0,43.0,29.80,SE,145,1.0,14.0,28,0.00,,,0.00,,2013-04-12 21:32:00,
2013-04-12 16:43:00,79.0,43.0,29.80,SE,145,1.0,14.0,28,0.00,,,0.00,,2013-04-12 21:43:00,
2013-04-12 16:53:00,79.0,42.0,29.80,SE,135,2.0,9.0,27,0.00,,,0.00,,2013-04-12 21:53:00,
2013-04-12 17:02:00,80.0,45.0,29.79,SSE,150,2.0,10.0,29,0.00,,,0.00,,2013-04-12 22:02:00,
2013-04-12 17:13:00,80.0,45.0,29.79,SSE,150,2.0,10.0,29,0.00,,,0.00,,2013-04-12 22:13:00,
2013-04-12 17:22:00,80.0,43.0,29.78,SE,124,6.0,13.0,27,0.00,,,0.00,,2013-04-12 22:22:00,
2013-04-12 17:32:00,79.0,43.0,29.78,SE,135,6.0,14.0,28,0.00,,,0.00,,2013-04-12 22:32:00,
2013-04-12 17:42:00,79.0,43.0,29.78,SE,135,6.0,14.0,28,0.00,,,0.00,,2013-04-12 22:42:00,
2013-04-12 17:52:00,79.0,43.0,29.77,SSE,157,4.0,13.0,28,0.00,,,0.00,,2013-04-12 22:52:00,
2013-04-12 18:03:00,79.0,42.0,29.77,SSE,155,2.0,9.0,27,0.00,,,0.00,,2013-04-12 23:03:00,
2013-04-12 18:12:00,79.0,42.0,29.77,SSE,155,2.0,9.0,27,0.00,,,0.00,,2013-04-12 23:12:00,
2013-04-12 18:22:00,79.0,43.0,29.77,SSE,157,3.0,10.0,28,0.00,,,0.00,,2013-04-12 23:22:00,
2013-04-12 18:32:00,78.0,44.0,29.78,SE,130,3.0,7.0,30,0.00,,,0.00,,2013-04-12 23:32:00,
2013-04-12 18:42:00,78.0,44.0,29.78,SE,130,3.0,7.0,30,0.00,,,0.00,,2013-04-12 23:42:00,
2013-04-12 18:52:00,78.0,42.0,29.78,SSE,153,4.0,13.0,28,0.00,,,0.00,,2013-04-12 23:52:00,
2013-04-12 19:02:00,78.0,43.0,29.78,SSE,158,1.0,11.0,29,0.00,,,0.00,,2013-04-13 00:02:00,
2013-04-12 19:12:00,78.0,43.0,29.78,SSE,158,1.0,11.0,29,0.00,,,0.00,,2013-04-13 00:12:00,
2013-04-12 19:22:00,77.0,42.0,29.77,SSE,157,4.0,13.0,29,0.00,,,0.00,,2013-04-13 00:22:00,
2013-04-12 19:32:00,76.0,43.0,29.78,SSE,165,4.0,10.0,31,0.00,,,0.00,,2013-04-13 00:32:00,
2013-04-12 19:42:00,76.0,43.0,29.78,SSE,165,4.0,10.0,31,0.00,,,0.00,,2013-04-13 00:42:00,
2013-04-12 19:52:00,76.0,43.0,29.78,SSE,164,3.0,9.0,31,0.00,,,0.00,,2013-04-13 00:52:00,
2013-04-12 20:02:00,75.0,44.0,29.78,SSE,163,2.0,9.0,33,0.00,,,0.00,,2013-04-13 01:02:00,
2013-04-12 20:12:00,75.0,44.0,29.78,SSE,163,2.0,9.0,33,0.00,,,0.00,,2013-04-13 01:12:00,
2013-04-12 20:22:00,74.0,43.0,29.78,SSE,163,4.0,8.0,33,0.00,,,0.00,,2013-04-13 01:22:00,
2013-04-12 20:32:00,73.0,44.0,29.78,SSE,163,2.0,8.0,35,0.00,,,0.00,,2013-04-13 01:32:00,
2013-04-12 20:42:00,73.0,44.0,29.78,SSE,163,2.0,8.0,35,0.00,,,0.00,,2013-04-13 01:42:00,
2013-04-12 20:52:00,71.0,45.0,29.80,SSE,163,0.0,6.0,40,0.00,,,0.00,,2013-04-13 01:52:00,
2013-04-12 21:02:00,70.0,46.0,29.80,SSE,163,0.0,5.0,43,0.00,,,0.00,,2013-04-13 02:02:00,
2013-04-12 21:12:00,70.0,46.0,29.80,SSE,163,0.0,5.0,43,0.00,,,0.00,,2013-04-13 02:12:00,
2013-04-12 21:22:00,69.0,46.0,29.80,SSE,163,0.0,5.0,44,0.00,,,0.00,,2013-04-13 02:22:00,
2013-04-12 21:32:00,69.0,47.0,29.81,SSE,163,2.0,7.0,46,0.00,,,0.00,,2013-04-13 02:32:00,
2013-04-12 21:42:00,69.0,47.0,29.81,SSE,163,2.0,7.0,46,0.00,,,0.00,,2013-04-13 02:42:00,
2013-04-12 21:53:00,68.0,48.0,29.82,SSE,163,3.0,6.0,48,0.00,,,0.00,,2013-04-13 02:53:00,
2013-04-12 22:02:00,68.0,48.0,29.82,SSE,163,2.0,7.0,48,0.00,,,0.00,,2013-04-13 03:02:00,
2013-04-12 22:12:00,68.0,48.0,29.82,SSE,163,2.0,7.0,48,0.00,,,0.00,,2013-04-13 03:12:00,
2013-04-12 22:22:00,68.0,47.0,29.83,SSE,163,4.0,7.0,47,0.00,,,0.00,,2013-04-13 03:22:00,
2013-04-12 22:33:00,68.0,46.0,29.83,SSE,163,4.0,11.0,46,0.00,,,0.00,,2013-04-13 03:33:00,
2013-04-12 22:42:00,68.0,46.0,29.83,SSE,163,4.0,11.0,46,0.00,,,0.00,,2013-04-13 03:42:00,
2013-04-12 22:53:00,68.0,46.0,29.84,SSE,161,3.0,10.0,46,0.00,,,0.00,,2013-04-13 03:53:00,
2013-04-12 23:03:00,67.0,46.0,29.85,SSE,155,4.0,10.0,46,0.00,,,0.00,,2013-04-13 04:03:00,
2013-04-12 23:12:00,67.0,46.0,29.85,SSE,155,4.0,10.0,46,0.00,,,0.00,,2013-04-13 04:12:00,
2013-04-12 23:23:00,67.0,46.0,29.86,SSE,150,5.0,12.0,47,0.00,,,0.00,,2013-04-13 04:23:00,
2013-04-12 23:33:00,67.0,48.0,29.86,SSE,156,5.0,13.0,51,0.00,,,0.00,,2013-04-13 04:33:00,
2013-04-12 23:42:00,67.0,48.0,29.86,SSE,156,5.0,13.0,51,0.00,,,0.00,,2013-04-13 04:42:00,
2013-04-12 23:53:00,66.0,50.0,29.86,SSE,160,7.0,14.0,57,0.00,,,0.00,,2013-04-13 04:53:00,